DateTime,F1_A11,F1_S11,BsB_S11,BsG_S11,BsR_S11,BbsB_S11,BbsG_S11,BbsR_S11,BaB_A11,BaG_A11,BaR_A11,T_S11,U_S11,P_S11,T1_A11
2016-11-25T00:00:00Z,0000388,21000608,,,,,,,,,,26.2,00.0,0627.8,34.6
2016-11-25T00:01:00Z,0000388,21000608,,,,,,,,,,26.2,00.0,0627.8,34.7
2016-11-25T00:02:00Z,0000388,21000608,,,,,,,,,,26.2,00.0,0627.8,34.7
2016-11-25T00:03:00Z,0000388,61000608,,,,,,,,,,26.2,00.0,0627.8,34.7
2016-11-25T00:04:00Z,0000388,41000608,-000.73,0000.35,0000.28,0000.16,-000.15,0000.50,0000.12,-000.16,0000.01,26.3,00.0,0628.7,34.7
2016-11-25T00:05:00Z,0000388,01000608,0000.32,0000.49,0000.19,0000.87,0000.42,-000.17,-000.00,0000.19,-000.10,26.3,00.0,0628.7,34.7
2016-11-25T00:06:00Z,0000388,01000608,0000.16,0000.64,0000.16,0000.27,0000.02,0000.18,0000.14,0000.12,0000.09,26.3,00.0,0628.7,34.7
2016-11-25T00:07:00Z,0000388,01000608,-001.03,0000.91,-000.09,-000.09,0000.09,0000.18,-000.01,-000.13,0000.19,26.3,00.0,0628.6,34.7
2016-11-25T00:08:00Z,0000388,01000608,-000.37,-000.16,-000.10,0000.90,0000.24,-000.16,0000.11,0000.12,-000.13,26.3,00.0,0628.7,34.7
2016-11-25T00:09:00Z,0000388,01000608,0000.21,-000.01,-000.18,0000.44,0000.81,-000.27,-000.02,-000.10,0000.06,26.3,00.0,0628.7,34.7
2016-11-25T00:10:00Z,0000388,01000608,-000.42,0001.04,-000.06,0000.37,-000.25,-000.02,0000.03,0000.09,0000.08,26.3,00.0,0628.6,34.7
2016-11-25T00:11:00Z,0000388,01000608,-000.18,-000.09,0000.29,0000.24,0000.32,0000.39,0000.05,-000.12,-000.12,26.2,00.0,0628.6,34.6
2016-11-25T00:12:00Z,0000388,01000608,-000.16,0000.38,-000.09,0000.79,0000.66,-000.10,0000.15,0000.07,0000.15,26.2,00.0,0628.7,34.6
2016-11-25T00:13:00Z,0000388,01000608,0000.40,0000.60,-000.14,0000.19,0000.16,0000.38,-000.10,-000.08,-000.37,26.2,00.0,0628.7,34.6
2016-11-25T00:14:00Z,0000388,01000608,-000.08,0000.40,0000.34,0000.07,0000.27,0000.44,-000.21,-000.00,-000.10,26.2,00.0,0628.6,34.6
2016-11-25T00:15:00Z,0000388,01000608,0000.09,0000.28,-000.43,0000.44,0000.05,-000.36,0000.16,0000.00,0000.17,26.2,00.0,0628.7,34.6
2016-11-25T00:16:00Z,0000388,01000608,-000.02,0000.75,-000.13,0000.39,0000.19,-000.06,0000.03,-000.12,-000.13,26.2,00.0,0628.8,34.7
2016-11-25T00:17:00Z,0000388,01000608,0000.01,0000.36,0000.25,0000.21,0000.32,0000.20,-000.02,0000.17,0000.36,26.2,00.0,0628.8,34.7
2016-11-25T00:18:00Z,0000388,01000608,0001.01,0000.90,0000.29,0000.37,0000.01,0000.55,0000.14,-000.04,0000.07,26.3,00.0,0628.8,34.7
2016-11-25T00:19:00Z,0000388,01000608,-000.06,0000.15,0000.04,-000.28,0000.26,0000.45,-000.01,-000.06,-000.32,26.3,00.0,0628.7,34.7
2016-11-25T00:20:00Z,0000388,01000608,-000.32,0000.99,0000.15,0000.54,0000.13,-000.23,0000.01,0000.00,0000.03,26.3,00.0,0628.6,34.7
2016-11-25T00:21:00Z,0000388,01000608,-000.55,-000.19,-000.06,0000.43,0000.59,-000.16,-000.09,0000.13,0000.12,26.4,00.0,0628.8,34.7
2016-11-25T00:22:00Z,0000388,01000608,0000.37,0000.54,0000.30,0000.01,0000.08,0000.43,-000.04,0000.02,-000.33,26.4,00.0,0628.6,34.7
2016-11-25T00:23:00Z,0000388,01000608,0001.05,-000.31,-000.07,0000.68,0000.00,0000.09,0000.13,-000.00,0000.43,26.4,00.0,0628.6,34.7
2016-11-25T00:24:00Z,0000388,01000608,0000.53,0001.28,-000.42,0000.69,0000.12,-000.10,0000.13,0000.12,0000.01,26.4,00.0,0628.4,34.7
2016-11-25T00:25:00Z,0000388,01000608,-000.17,0000.16,0000.04,0000.41,0000.33,-000.18,-000.18,-000.06,0000.21,26.4,00.0,0628.8,34.7
2016-11-25T00:26:00Z,0000388,01000608,-000.47,0000.69,0000.25,0000.02,0000.05,-000.18,0000.09,0000.06,-000.32,26.4,00.0,0628.6,34.7
2016-11-25T00:27:00Z,0000388,01000608,-000.42,0000.44,0000.05,0001.06,0000.46,0000.21,-000.09,0000.06,0000.38,26.4,00.0,0628.7,34.7
2016-11-25T00:28:00Z,0000388,01000608,0000.42,0000.20,0000.20,-000.06,0000.47,0000.26,0000.17,-000.14,-000.45,26.4,00.0,0628.8,34.7
2016-11-25T00:29:00Z,0000388,01000608,-000.20,0000.56,0000.45,0000.96,0000.15,0000.52,0000.00,-000.05,0000.05,26.3,00.0,0628.6,34.7
2016-11-25T00:30:00Z,0000388,01000608,0000.23,0000.76,0000.22,0000.67,-000.33,-000.02,-000.08,0000.09,-000.10,26.3,00.0,0628.2,34.7
2016-11-25T00:31:00Z,0000388,01000608,0001.11,0000.45,0000.18,0000.19,0000.32,0000.18,-000.05,-000.19,0000.22,26.4,00.0,0628.5,34.7
2016-11-25T00:32:00Z,0000388,01000608,-000.09,0000.51,-000.23,0000.24,0000.23,0000.10,0000.13,0000.12,-000.12,26.4,00.0,0628.7,34.7
2016-11-25T00:33:00Z,0000388,01000608,0000.74,0000.59,0000.13,0000.63,0000.38,-000.02,0000.05,-000.19,0000.22,26.5,00.0,0628.6,34.7
2016-11-25T00:34:00Z,0000388,01000608,0001.25,0000.31,0000.50,-000.09,0000.56,0000.72,-000.13,0000.11,-000.15,26.5,00.0,0628.7,34.7
2016-11-25T00:35:00Z,0000388,01000608,0000.96,-000.04,0000.30,0000.60,0000.34,-000.01,0000.09,0000.14,0000.29,26.5,00.0,0628.8,34.7
2016-11-25T00:36:00Z,0000388,01000608,0000.33,0000.03,0000.05,0000.01,0000.12,0000.20,-000.10,0000.04,0000.14,26.5,00.0,0628.7,34.7
2016-11-25T00:37:00Z,0000388,01000608,0000.66,0000.17,0000.32,0000.89,0000.21,0000.07,0000.03,0000.10,-000.22,26.5,00.0,0628.8,34.7
2016-11-25T00:38:00Z,0000388,01000608,0000.13,0000.25,-000.07,0000.11,-000.10,-000.23,-000.02,-000.06,-000.03,26.5,00.0,0628.8,34.7
2016-11-25T00:39:00Z,0000388,01000608,0000.00,0000.68,0000.33,0001.30,-000.08,0000.23,0000.02,0000.01,-000.12,26.5,00.0,0628.7,34.7
2016-11-25T00:40:00Z,0000388,01000608,-000.46,0000.63,0000.12,0000.24,-000.03,0000.31,0000.19,-000.02,0000.12,26.5,00.0,0628.8,34.7
2016-11-25T00:41:00Z,0000388,01000608,-000.47,0000.03,0000.20,0000.54,0000.06,-000.12,-000.10,0000.05,-000.06,26.5,00.0,0628.7,34.7
2016-11-25T00:42:00Z,0000388,01000608,0001.12,0000.66,0000.38,-000.17,0000.52,0000.22,-000.10,-000.07,0000.06,26.5,00.0,0628.7,34.7
2016-11-25T00:43:00Z,0000388,01000608,0000.21,0000.57,-000.01,0000.29,0000.48,0000.04,0000.07,0000.02,-000.26,26.4,00.0,0628.7,34.7
2016-11-25T00:44:00Z,000038A,0100060A,-000.00,-000.17,-000.21,0000.33,-000.07,-000.29,0000.05,0000.01,-000.02,26.4,00.0,0628.7,34.7
2016-11-25T00:45:00Z,000038A,0100060A,-000.46,0000.52,0000.30,0000.21,-000.11,-000.11,0000.11,-000.08,0000.34,26.4,00.0,0628.7,34.7
2016-11-25T00:46:00Z,0000382,01000602,0000.88,0000.57,-000.15,0000.83,-000.05,-000.22,-000.20,0000.14,-000.24,26.5,00.0,0628.6,34.7
2016-11-25T00:47:00Z,0000382,01000602,0001.00,0001.32,-000.24,-000.02,0000.37,0000.08,0000.24,-000.09,0000.31,26.5,00.0,0628.6,34.7
2016-11-25T00:48:00Z,0000382,01000602,-000.42,0000.66,-000.36,0000.19,-000.19,0000.13,-000.21,-000.00,-000.36,26.5,00.0,0628.6,34.7
2016-11-25T00:49:00Z,0000382,01000602,-000.15,-000.26,-000.32,0000.90,-000.11,-000.31,0000.14,0000.05,0000.15,26.5,00.0,0628.6,34.7
2016-11-25T00:50:00Z,0000382,01000602,-000.94,0000.03,0000.03,0000.61,0000.28,-000.14,0000.04,0000.08,0000.03,26.5,00.0,0628.6,34.7
2016-11-25T00:51:00Z,0000382,01000602,-000.39,0000.36,-000.03,0000.32,0000.39,-000.31,0000.18,-000.11,0000.09,26.5,00.0,0628.6,34.7
2016-11-25T00:52:00Z,0000382,01000602,0001.09,0000.22,0000.27,0000.04,0000.36,0000.09,-000.02,0000.15,0000.22,26.5,00.0,0628.6,34.7
2016-11-25T00:53:00Z,0000382,01000602,-000.13,0000.95,0000.03,0000.75,0000.18,0000.20,-000.08,-000.03,-000.08,26.5,00.0,0628.6,34.7
2016-11-25T00:54:00Z,0000382,01000602,-000.13,0000.57,0000.23,0000.10,0000.27,0000.24,-000.06,0000.08,-000.32,26.5,00.0,0628.6,34.7
2016-11-25T00:55:00Z,0000382,01000602,0000.81,0000.32,0000.35,0000.60,0000.38,0000.14,0000.16,-000.07,0000.17,26.5,00.0,0628.7,34.7
2016-11-25T00:56:00Z,0000382,01000602,-000.82,0000.47,-000.16,0000.61,0000.43,0000.08,-000.19,0000.13,0000.05,26.5,00.0,0628.7,34.7
2016-11-25T00:57:00Z,0000382,41000602,,,,,,,,,,26.5,00.0,0628.6,34.7
2016-11-25T00:58:00Z,0000382,61000602,,,,,,,,,,26.4,00.0,0627.7,34.6
2016-11-25T00:59:00Z,0000382,21000602,,,,,,,,,,26.4,00.0,0627.6,34.6
2016-11-25T01:00:00Z,0000382,21000602,,,,,,,,,,26.4,00.0,0627.7,34.6
2016-11-25T01:01:00Z,0000382,21000602,,,,,,,,,,26.4,00.0,0627.7,34.7
2016-11-25T01:02:00Z,0000382,21000602,,,,,,,,,,26.4,00.0,0627.7,34.7
2016-11-25T01:03:00Z,0000382,61000602,,,,,,,,,,26.4,00.0,0627.7,34.7
2016-11-25T01:04:00Z,0000382,41000602,0000.30,0000.04,0000.06,-000.19,-000.08,0000.02,-000.03,0000.14,0000.08,26.5,00.0,0628.6,34.7
2016-11-25T01:05:00Z,0000382,01000602,-000.60,0000.95,0000.25,0000.31,-000.01,-000.01,0000.13,0000.21,-000.03,26.5,00.0,0628.7,34.7
2016-11-25T01:06:00Z,0000382,01000602,0000.74,-000.04,0000.14,-000.06,-000.43,0000.08,-000.06,-000.04,-000.04,26.5,00.0,0628.7,34.7
2016-11-25T01:07:00Z,0000382,01000602,0000.68,-000.17,-000.00,-000.40,0000.24,-000.37,-000.06,-000.07,0000.00,26.5,00.0,0628.7,34.7
2016-11-25T01:08:00Z,0000382,01000602,-000.14,0000.25,0000.18,-000.10,0000.28,0000.40,0000.13,0000.10,0000.15,26.5,00.0,0628.7,34.7
2016-11-25T01:09:00Z,0000382,01000602,-000.26,0000.55,-000.61,-000.47,-000.55,-000.09,-000.15,0000.02,-000.08,26.5,00.0,0628.7,34.7
2016-11-25T01:10:00Z,0000382,01000602,0000.82,-000.10,0000.13,0000.01,0000.09,0000.04,0000.23,-000.05,0000.09,26.5,00.0,0628.7,34.7
2016-11-25T01:11:00Z,0000382,01000602,0000.45,-000.18,0000.09,0000.10,-000.16,-000.15,-000.13,0000.02,-000.19,26.4,00.0,0628.6,34.6
2016-11-25T01:12:00Z,0000388,01000608,0000.43,-000.15,0000.06,-000.33,0000.03,0000.00,-000.09,0000.03,0000.10,26.4,00.0,0628.6,34.6
2016-11-25T01:13:00Z,0000388,01000608,-000.19,0000.06,-000.11,0000.62,-000.22,0000.28,0000.24,0000.02,-000.09,26.4,00.0,0628.6,34.6
2016-11-25T01:14:00Z,0000388,01000608,-000.01,-000.05,0000.18,-000.08,0000.25,0000.25,-000.10,-000.11,-000.11,26.4,00.0,0628.6,34.6
2016-11-25T01:15:00Z,0000388,01000608,0000.43,-000.29,-000.11,-000.63,-000.02,-000.05,0000.11,0000.07,0000.14,26.4,00.0,0628.7,34.6
2016-11-25T01:16:00Z,0000388,01000608,0000.10,0000.58,-000.06,-000.32,0000.31,0000.21,-000.09,-000.06,-000.13,26.4,00.0,0628.7,34.7
2016-11-25T01:17:00Z,0000388,01000608,0000.22,-000.17,0000.06,0000.12,0000.45,-000.19,-000.10,-000.04,0000.10,26.4,00.0,0628.7,34.7
2016-11-25T01:18:00Z,0000388,01000608,0000.41,-000.02,0000.42,-000.43,0000.09,0000.73,0000.02,0000.02,0000.05,26.5,00.0,0628.7,34.7
2016-11-25T01:19:00Z,0000388,01000608,-000.13,0000.06,0000.78,-000.92,0000.34,0000.47,0000.14,-000.06,-000.20,26.5,00.0,0628.8,34.7
2016-11-25T01:20:00Z,0000388,01000608,0000.23,0000.40,-000.19,-000.26,0000.44,-000.08,0000.15,0000.10,0000.27,26.5,00.0,0628.8,34.7
2016-11-25T01:21:00Z,0000388,01000608,-000.44,0000.35,0000.14,-000.06,0000.04,-000.16,-000.20,0000.12,0000.08,26.5,00.0,0628.8,34.7
2016-11-25T01:22:00Z,0000388,01000608,0000.64,-000.23,0000.06,-000.15,-000.14,0000.30,-000.08,0000.07,-000.07,26.5,00.0,0628.8,34.7
2016-11-25T01:23:00Z,0000388,01000608,-000.32,0000.48,0000.04,-000.17,0000.24,0000.43,0000.23,-000.14,0000.18,26.5,00.0,0628.8,34.7
2016-11-25T01:24:00Z,0000388,01000608,0000.18,-000.00,0000.34,-000.68,-000.04,0000.45,-000.01,0000.11,-000.35,26.5,00.0,0628.8,34.7
2016-11-25T01:25:00Z,0000388,01000608,0000.24,0000.68,-000.15,0000.17,0000.02,0000.02,-000.14,-000.00,0000.16,26.5,00.0,0628.8,34.7
2016-11-25T01:26:00Z,0000388,01000608,-000.47,-000.08,0000.16,-000.27,-000.12,-000.05,0000.21,0000.12,-000.07,26.5,00.0,0628.8,34.7
2016-11-25T01:27:00Z,0000388,01000608,0000.23,-000.36,0000.09,-000.34,-000.21,0000.08,-000.01,0000.01,0000.13,26.4,00.0,0628.8,34.6
2016-11-25T01:28:00Z,0000388,01000608,0000.13,0000.73,0000.22,0000.36,0000.13,0000.32,0000.08,-000.22,-000.15,26.4,00.0,0628.9,34.6
2016-11-25T01:29:00Z,0000388,01000608,0000.50,0000.24,-000.13,-000.34,-000.08,0000.75,0000.01,-000.01,0000.11,26.4,00.0,0628.9,34.6
2016-11-25T01:30:00Z,0000388,01000608,0000.58,0000.17,-000.02,0000.24,-000.37,0000.05,-000.07,0000.12,-000.16,26.4,00.0,0628.9,34.6
2016-11-25T01:31:00Z,0000388,01000608,0000.73,0000.06,0000.58,0000.19,0000.23,0000.19,0000.07,-000.12,0000.14,26.4,00.0,0628.8,34.7
2016-11-25T01:32:00Z,0000388,01000608,0000.38,0000.25,0000.42,-000.33,-000.14,0000.19,-000.03,0000.04,-000.05,26.4,00.0,0628.8,34.7
2016-11-25T01:33:00Z,0000388,01000608,0000.89,-000.23,0000.02,-000.47,0000.33,0000.14,-000.07,-000.09,-000.16,26.5,00.0,0628.9,34.7
2016-11-25T01:34:00Z,0000388,01000608,-000.12,-000.07,-000.07,-000.20,0000.26,-000.05,0000.08,0000.09,0000.22,26.5,00.0,0628.8,34.7
2016-11-25T01:35:00Z,0000388,01000608,-000.04,0000.15,-000.30,-000.16,-000.18,0000.13,-000.08,0000.02,0000.07,26.6,00.0,0628.8,34.7
2016-11-25T01:36:00Z,0000388,01000608,0000.11,0000.11,-000.29,-000.20,-000.40,0000.15,0000.08,0000.12,-000.06,26.6,00.0,0628.8,34.7
2016-11-25T01:37:00Z,0000388,01000608,0000.33,-000.07,-000.14,-000.34,0000.05,-000.05,-000.09,0000.08,0000.11,26.6,00.0,0628.8,34.7
2016-11-25T01:38:00Z,0000388,01000608,0000.10,0000.34,-000.10,0000.14,-000.22,0000.20,-000.01,-000.10,-000.06,26.6,00.0,0628.9,34.7
2016-11-25T01:39:00Z,0000388,01000608,0000.01,-000.60,0000.34,-000.11,-000.20,0000.22,0000.04,0000.05,0000.12,26.6,00.0,0628.8,34.7
2016-11-25T01:40:00Z,0000388,01000608,0000.01,0000.31,0000.90,0000.16,0000.14,0000.46,0000.17,0000.10,0000.07,26.6,00.0,0628.8,34.7
2016-11-25T01:41:00Z,0000388,01000608,0000.36,0000.46,-000.19,-000.09,0000.11,-000.18,0000.02,-000.01,-000.03,26.6,00.0,0628.8,34.7
2016-11-25T01:42:00Z,0000388,01000608,0000.18,-000.50,-000.05,-000.39,-000.03,0000.10,-000.02,0000.09,0000.17,26.6,00.0,0628.8,34.7
2016-11-25T01:43:00Z,0000388,01000608,0001.24,-000.06,-000.05,0000.25,-000.05,0000.12,-000.07,-000.13,-000.31,26.6,00.0,0628.8,34.7
2016-11-25T01:44:00Z,0000388,01000608,0000.07,0000.47,0000.24,-000.39,-000.13,-000.09,0000.10,-000.06,0000.05,26.6,00.0,0628.8,34.7
2016-11-25T01:45:00Z,0000388,01000608,-000.02,-000.16,0000.44,0000.46,-000.41,0000.08,-000.11,0000.03,-000.15,26.6,00.0,0628.8,34.7
2016-11-25T01:46:00Z,0000388,01000608,-000.76,0000.21,0000.33,0000.27,0000.16,0000.29,0000.23,-000.17,0000.19,26.6,00.0,0628.8,34.7
2016-11-25T01:47:00Z,0000388,01000608,0000.37,0000.03,-000.33,-000.17,-000.36,0000.17,-000.07,0000.13,-000.01,26.6,00.0,0628.8,34.7
2016-11-25T01:48:00Z,0000388,01000608,0000.82,0000.52,0000.11,0000.42,-000.12,0000.03,-000.08,0000.06,0000.00,26.6,00.0,0628.9,34.7
2016-11-25T01:49:00Z,0000388,01000608,0000.64,0000.69,0000.03,0000.28,-000.10,-000.21,0000.01,0000.16,0000.33,26.6,00.0,0628.9,34.7
2016-11-25T01:50:00Z,0000388,01000608,0000.85,-000.17,-000.29,-000.08,0000.39,-000.20,0000.17,-000.09,-000.24,26.7,00.0,0628.9,34.7
2016-11-25T01:51:00Z,0000388,01000608,0000.68,0000.12,-000.04,-000.10,0000.51,0000.15,-000.10,0000.10,0000.15,26.6,00.0,0629.0,34.7
2016-11-25T01:52:00Z,0000388,01000608,0000.26,-000.02,0000.18,0000.41,-000.20,0000.05,0000.02,-000.02,-000.33,26.6,00.0,0629.0,34.7
2016-11-25T01:53:00Z,0000388,01000608,0001.09,0000.53,0000.18,0000.54,-000.17,0000.17,-000.01,0000.10,0000.15,26.6,00.0,0628.9,34.7
2016-11-25T01:54:00Z,0000388,01000608,0000.27,0000.01,0000.17,-000.10,0000.14,0000.14,0000.10,-000.01,-000.12,26.6,00.0,0629.0,34.7
2016-11-25T01:55:00Z,0000388,01000608,0000.06,0000.54,-000.30,0000.17,0000.05,-000.12,0000.01,-000.07,0000.13,26.6,00.0,0629.0,34.7
2016-11-25T01:56:00Z,0000388,01000608,-000.17,0000.18,0000.19,-000.32,0000.18,0000.17,-000.11,0000.05,-000.04,26.6,00.0,0629.1,34.7
2016-11-25T01:57:00Z,0000388,41000608,,,,,,,,,,26.7,00.0,0629.1,34.7
2016-11-25T01:58:00Z,0000388,61000608,,,,,,,,,,26.5,00.0,0628.2,34.7
2016-11-25T01:59:00Z,0000388,21000608,,,,,,,,,,26.6,00.0,0628.2,34.7
2016-11-25T02:00:00Z,0000388,21000608,,,,,,,,,,26.6,00.0,0628.2,34.7
2016-11-25T02:01:00Z,0000388,21000608,,,,,,,,,,26.6,00.0,0628.2,34.7
2016-11-25T02:02:00Z,0000380,21000600,,,,,,,,,,26.6,00.0,0628.2,34.7
2016-11-25T02:03:00Z,0000380,61000600,,,,,,,,,,26.6,00.0,0628.2,34.7
2016-11-25T02:04:00Z,0000380,41000600,-000.41,-000.04,-000.14,0000.72,0000.23,-000.20,-000.07,0000.05,0000.08,26.5,00.0,0629.1,34.6
2016-11-25T02:05:00Z,0000380,01000600,-000.09,0000.07,-000.24,0000.32,0000.05,-000.19,0000.22,0000.16,0000.19,26.5,00.0,0629.2,34.6
2016-11-25T02:06:00Z,0000380,01000600,0000.54,0000.20,-000.15,0000.33,0000.45,0000.13,-000.15,-000.09,-000.27,26.4,00.0,0629.2,34.6
2016-11-25T02:07:00Z,0000380,01000600,0000.84,0000.40,0000.19,0000.28,0000.43,0000.49,-000.00,-000.04,0000.03,26.4,00.0,0629.2,34.6
2016-11-25T02:08:00Z,0000380,01000600,0000.34,-000.17,-000.07,-000.42,0000.20,0000.13,0000.10,0000.14,0000.34,26.4,00.0,0629.1,34.6
2016-11-25T02:09:00Z,0000380,01000600,0000.59,-000.07,-000.05,-000.16,0000.07,0000.03,-000.00,0000.14,-000.31,26.4,00.0,0629.1,34.6
2016-11-25T02:10:00Z,0000380,01000600,-000.63,0001.14,0000.06,0000.08,0000.12,0000.17,0000.09,-000.12,0000.02,26.3,00.0,0629.0,34.6
2016-11-25T02:11:00Z,0000380,01000600,0000.18,-000.49,0000.25,0000.13,-000.31,0000.03,-000.10,-000.01,0000.03,26.3,00.0,0629.2,34.6
2016-11-25T02:12:00Z,0000380,01000600,-000.31,0000.49,-000.27,0000.05,-000.16,0000.38,-000.02,-000.04,0000.03,26.3,00.0,0629.2,34.6
2016-11-25T02:13:00Z,0000380,01000600,-000.07,0000.10,0000.05,-000.05,0000.11,0000.46,0000.08,-000.12,-000.17,26.2,00.0,0629.2,34.5
2016-11-25T02:14:00Z,0000380,01000600,0000.75,0000.16,-000.15,0000.10,-000.05,0000.06,-000.03,0000.12,0000.06,26.2,00.0,0629.1,34.5
2016-11-25T02:15:00Z,0000380,01000600,0000.19,0000.02,-000.07,0000.21,0000.33,0000.30,-000.16,-000.10,0000.04,26.2,00.0,0629.1,34.6
2016-11-25T02:16:00Z,0000380,01000600,0000.47,-000.11,-000.17,-000.10,-000.07,0000.06,0000.19,0000.18,0000.10,26.2,00.0,0629.0,34.6
2016-11-25T02:17:00Z,0000380,01000600,0000.05,-000.02,-000.01,-000.27,0000.42,0000.14,-000.11,-000.22,-000.37,26.2,00.0,0629.0,34.6
2016-11-25T02:18:00Z,0000380,01000600,0000.34,0000.65,-000.22,0000.60,0000.07,-000.18,-000.06,-000.05,-000.03,26.2,00.0,0629.0,34.7
2016-11-25T02:19:00Z,0000380,01000600,0000.22,0000.46,-000.27,-000.25,0000.23,0000.06,0000.09,0000.15,0000.15,26.3,00.0,0629.0,34.7
2016-11-25T02:20:00Z,0000380,01000600,0000.29,-000.33,0000.10,0000.35,-000.05,0000.45,-000.02,-000.20,0000.40,26.3,00.0,0629.0,34.7
2016-11-25T02:21:00Z,0000380,01000600,0000.13,0000.09,0000.03,-000.38,0000.27,0000.10,0000.03,0000.22,-000.14,26.3,00.0,0629.0,34.7
2016-11-25T02:22:00Z,0000380,01000600,0000.04,-000.22,-000.11,0000.21,0000.12,0000.23,0000.04,0000.14,-000.08,26.3,00.0,0629.1,34.7
2016-11-25T02:23:00Z,0000380,01000600,0000.07,0000.70,-000.04,-000.14,0000.11,-000.13,0000.13,-000.01,0000.32,26.3,00.0,0629.0,34.6
2016-11-25T02:24:00Z,0000380,01000600,0000.17,0000.45,-000.05,0000.13,0000.27,0000.23,-000.08,0000.09,0000.03,26.3,00.0,0629.0,34.6
2016-11-25T02:25:00Z,0000380,01000600,0000.24,-000.02,0000.44,-000.48,0000.12,0000.12,-000.01,-000.22,-000.04,26.2,00.0,0629.1,34.6
2016-11-25T02:26:00Z,0000380,01000600,0000.07,-000.41,0000.26,0000.44,-000.28,-000.03,0000.24,0000.22,-000.19,26.2,00.0,0629.1,34.6
2016-11-25T02:27:00Z,0000380,01000600,0000.41,0000.29,-000.17,-000.48,0000.40,0000.04,-000.19,-000.07,0000.12,26.2,00.0,0629.0,34.6
2016-11-25T02:28:00Z,0000380,01000600,0000.02,-000.05,0000.05,-000.19,0000.21,0000.13,0000.25,0000.00,-000.04,26.2,00.0,0629.0,34.6
2016-11-25T02:29:00Z,0000380,01000600,0000.72,0000.27,0000.07,0000.11,0000.00,-000.65,-000.14,-000.08,0000.03,26.2,00.0,0629.0,34.6
2016-11-25T02:30:00Z,0000380,01000600,0000.23,0000.84,-000.14,0000.20,-000.01,0000.10,-000.12,0000.08,-000.23,26.1,00.0,0629.0,34.6
2016-11-25T02:31:00Z,0000380,01000600,0000.42,-000.40,-000.07,0000.74,0000.19,0000.41,0000.00,0000.10,0000.36,26.2,00.0,0629.0,34.6
2016-11-25T02:32:00Z,0000380,01000600,0000.07,0000.21,-000.24,-000.43,0000.13,0000.07,0000.07,-000.14,-000.31,26.2,00.0,0629.0,34.7
2016-11-25T02:33:00Z,0000380,01000600,-000.35,0000.91,-000.11,-000.06,0000.33,-000.10,0000.01,-000.01,0000.05,26.2,00.0,0629.0,34.7
2016-11-25T02:34:00Z,0000380,01000600,-000.64,0000.47,0000.23,0000.11,0000.47,0000.35,0000.02,0000.15,0000.13,26.2,00.0,0629.0,34.7
2016-11-25T02:35:00Z,0000380,01000600,0000.50,0000.60,0000.08,-000.49,-000.14,0000.25,0000.03,-000.14,-000.09,26.3,00.0,0629.1,34.7
2016-11-25T02:36:00Z,0000380,01000600,0000.65,0000.33,-000.01,0000.30,0000.18,0000.19,-000.10,-000.09,-000.05,26.3,00.0,0629.1,34.7
2016-11-25T02:37:00Z,0000380,01000600,0000.37,0000.58,0000.08,-000.40,-000.48,0000.01,0000.04,0000.11,0000.41,26.3,00.0,0629.0,34.7
2016-11-25T02:38:00Z,0000380,01000600,0000.25,-000.16,-000.41,0000.24,0000.18,-000.02,0000.14,0000.15,-000.19,26.4,00.0,0628.8,34.7
2016-11-25T02:39:00Z,0000380,01000600,0000.04,0000.62,-000.21,0000.42,0000.41,0000.28,0000.01,0000.05,-000.03,26.4,00.0,0628.9,34.7
2016-11-25T02:40:00Z,0000380,01000600,-000.28,0000.10,-000.17,-000.50,-000.09,0000.18,0000.01,0000.02,0000.51,26.4,00.0,0629.1,34.7
2016-11-25T02:41:00Z,0000380,01000600,-000.26,0000.07,-000.26,-000.09,-000.23,-000.17,0000.00,0000.19,-000.34,26.4,00.0,0629.1,34.7
2016-11-25T02:42:00Z,0000380,01000600,0000.12,0000.40,-000.21,0000.11,0000.21,-000.09,0000.02,-000.17,-000.08,26.4,00.0,0629.0,34.7
2016-11-25T02:43:00Z,0000380,01000600,-000.13,0000.28,-000.16,-000.52,0000.04,-000.06,0000.13,-000.04,0000.08,26.4,00.0,0629.0,34.7
2016-11-25T02:44:00Z,0000380,01000600,-000.11,0000.50,-000.08,0000.13,-000.20,0000.04,0000.16,0000.04,-000.06,26.4,00.0,0628.8,34.6
2016-11-25T02:45:00Z,0000380,01000600,-000.19,0000.22,0000.27,0000.46,-000.19,-000.08,-000.13,-000.01,0000.08,26.4,00.0,0628.7,34.7
2016-11-25T02:46:00Z,0000380,01000600,-000.11,0000.11,0000.00,-000.46,-000.04,0000.43,-000.04,-000.03,-000.15,26.4,00.0,0628.7,34.7
2016-11-25T02:47:00Z,0000380,01000600,0000.70,-000.31,0000.16,0000.04,0000.10,0000.20,-000.01,-000.07,-000.08,26.4,00.0,0628.7,34.7
2016-11-25T02:48:00Z,0000380,01000600,0000.28,0000.10,0000.22,0000.23,0000.20,-000.04,-000.06,0000.09,0000.21,26.5,00.0,0628.7,34.7
2016-11-25T02:49:00Z,0000380,01000600,0000.16,-000.07,0000.23,0000.49,0000.08,-000.21,0000.03,-000.00,-000.05,26.5,00.0,0628.8,34.7
2016-11-25T02:50:00Z,0000380,01000600,0000.75,-000.23,0000.03,-000.01,-000.26,-000.22,-000.09,-000.09,-000.07,26.5,00.0,0628.7,34.7
2016-11-25T02:51:00Z,0000380,01000600,0000.92,0000.16,-000.25,0000.38,-000.05,-000.17,0000.32,-000.05,0000.13,26.5,00.0,0628.8,34.7
2016-11-25T02:52:00Z,0000380,01000600,-000.04,0000.01,0000.03,0000.07,0000.16,0000.15,-000.03,0000.33,0000.19,26.5,00.0,0628.8,34.7
2016-11-25T02:53:00Z,0000380,01000600,-000.28,0000.39,-000.02,0000.15,0000.20,0000.34,0000.07,-000.08,-000.26,26.5,00.0,0628.8,34.7
2016-11-25T02:54:00Z,0000380,01000600,0000.27,0000.17,0000.55,0000.30,-000.10,0000.22,-000.06,0000.19,0000.15,26.5,00.0,0628.8,34.7
2016-11-25T02:55:00Z,0000380,01000600,0000.13,-000.07,0000.10,-000.41,0000.09,-000.14,0000.19,-000.15,0000.02,26.5,00.0,0628.8,34.6
2016-11-25T02:56:00Z,0000380,01000600,0000.61,0000.11,0000.45,-000.49,0000.08,0000.05,0000.12,-000.01,0000.08,26.4,00.0,0628.8,34.6
2016-11-25T02:57:00Z,0000380,41000600,,,,,,,,,,26.5,00.0,0628.8,34.6
2016-11-25T02:58:00Z,0000380,61000600,,,,,,,,,,26.4,00.0,0627.9,34.6
2016-11-25T02:59:00Z,0000380,21000600,,,,,,,,,,26.4,00.0,0627.8,34.6
2016-11-25T03:00:00Z,0000380,21000600,,,,,,,,,,26.4,00.0,0627.8,34.6
2016-11-25T03:01:00Z,0000380,21000600,,,,,,,,,,26.4,00.0,0627.9,34.6
2016-11-25T03:02:00Z,0000380,21000600,,,,,,,,,,26.4,00.0,0627.9,34.7
2016-11-25T03:03:00Z,0000380,61000600,,,,,,,,,,26.4,00.0,0627.9,34.7
2016-11-25T03:04:00Z,0000380,41000600,0000.59,-000.05,-000.16,0000.02,0000.10,-000.31,0000.22,0000.10,-000.06,26.4,00.0,0628.8,34.7
2016-11-25T03:05:00Z,0000380,01000600,0000.10,-000.04,-000.03,0000.07,-000.17,0000.00,-000.14,-000.04,0000.13,26.5,00.0,0628.9,34.7
2016-11-25T03:06:00Z,0000380,01000600,-000.24,-000.44,0000.09,-000.39,-000.33,-000.28,-000.07,-000.02,-000.12,26.5,00.0,0628.9,34.7
2016-11-25T03:07:00Z,0000380,01000600,0000.18,-000.18,0000.38,0000.39,0000.32,0000.06,0000.16,0000.16,0000.24,26.5,00.0,0628.9,34.7
2016-11-25T03:08:00Z,0000380,01000600,0000.71,0000.34,0000.47,0000.44,0000.31,0000.18,0000.22,0000.03,-000.12,26.5,00.0,0628.9,34.7
2016-11-25T03:09:00Z,0000380,01000600,0000.20,0000.07,-000.29,-000.15,0000.10,-000.11,0000.04,-000.02,-000.13,26.5,00.0,0628.9,34.6
2016-11-25T03:10:00Z,0000380,01000600,0000.69,0000.33,-000.07,0000.17,-000.17,-000.59,-000.08,0000.10,0000.12,26.5,00.0,0628.9,34.6
2016-11-25T03:11:00Z,0000380,01000600,0001.12,0000.06,-000.07,-000.06,0000.20,-000.48,-000.12,0000.04,-000.01,26.4,00.0,0628.9,34.6